EW6655 Weather Reports


time (UTC)temp
C
wind
direction
speed
KPH
gust
KPH
rain 1hr
cm
rain 24hr
cm
rain mn
cm
humidity
%
barometer
mb
20260831164558 16 230 4.8 25.7 0.00 0.18 0.18 77 1013.9
20260831163057 16 259 11.3 33.8 0.00 0.18 0.18 78 1013.6
20260831161555 15 329 6.4 25.7 0.03 0.18 0.18 82 1013.4
20260831160056 15 249 3.2 24.1 0.03 0.18 0.18 84 1013.3
20260831154554 15 231 11.3 22.5 0.03 0.18 0.18 85 1013.4
20260831153056 15 301 11.3 27.4 0.03 0.18 0.18 85 1013.3
20260831151600 15 247 12.9 30.6 0.00 0.15 0.15 83 1013.3
20260831150051 16 333 9.7 32.2 0.03 0.15 0.15 82 1013.2
20260831144602 15 247 6.4 29.0 0.13 0.15 0.15 86 1012.8
20260831143048 15 254 9.7 29.0 0.13 0.15 0.15 88 1012.8
20260831141548 15 257 12.9 27.4 0.13 0.15 0.15 87 1012.7
20260831140041 16 243 4.8 22.5 0.10 0.15 0.15 83 1012.2
20260831134540 16 297 6.4 25.7 0.00 0.05 0.05 79 1011.8
20260831133036 16 286 6.4 24.1 0.00 0.05 0.05 79 1011.7
20260831131538 17 252 11.3 33.8 0.00 0.05 0.05 78 1011.4
20260831130040 17 204 6.4 30.6 0.00 0.05 0.05 77 1011.3
20260831124533 17 256 11.3 27.4 0.00 0.05 0.05 81 1011.2
20260831123033 16 218 9.7 33.8 0.03 0.05 0.05 82 1011.5
20260831121536 16 223 9.7 25.7 0.03 0.05 0.05 84 1011.5
20260831120030 15 261 8.0 19.3 0.03 0.05 0.05 85 1011.5
20260831114533 16 236 12.9 30.6 0.03 0.05 0.05 79 1011.4
20260831113028 17 213 9.7 37.0 0.00 0.03 0.03 77 1011.2
20260831111525 16 259 9.7 29.0 0.00 0.03 0.03 82 1011.3
20260831110024 16 187 12.9 33.8 0.00 0.03 0.03 80 1011.4
20260831104524 16 257 12.9 25.7 0.03 0.03 0.03 80 1011.1
20260831103021 15 275 8.0 25.7 0.03 0.03 0.03 82 1011.2
20260831101520 15 180 11.3 25.7 0.03 0.03 0.03 84 1011.1
20260831100018 15 199 11.3 29.0 0.03 0.03 0.03 86 1011.0
20260831094522 16 215 9.7 27.4 0.00 0.00 0.00 80 1010.9
20260831093017 16 246 12.9 32.2 0.00 0.00 0.00 77 1010.9
20260831091514 16 275 11.3 29.0 0.00 0.00 0.00 80 1010.7
20260831090016 15 259 12.9 30.6 0.00 0.00 0.00 81 1010.8
20260831084525 16 248 11.3 30.6 0.00 0.00 0.00 81 1010.7
20260831083011 16 271 11.3 30.6 0.00 0.00 0.00 79 1010.8
20260831081518 15 231 9.7 33.8 0.00 0.00 0.00 79 1010.7
20260831080008 15 117 16.1 37.0 0.00 0.00 0.00 81 1010.8
20260831074526 15 241 14.5 30.6 0.00 0.00 0.00 83 1010.7
20260831073007 15 241 11.3 37.0 0.00 0.00 0.00 82 1010.7
20260831071504 15 202 12.9 29.0 0.00 0.00 0.00 82 1010.6
20260831070107 15 227 11.3 38.6 0.00 0.00 0.00 84 1010.6
20260831064507 15 227 8.0 27.4 0.00 0.00 0.00 86 1010.6
20260831063001 15 232 9.7 27.4 0.00 0.00 0.00 87 1010.6
20260831061502 14 238 8.0 25.7 0.00 0.00 0.00 88 1010.5
20260831060113 14 181 4.8 27.4 0.00 0.00 0.00 89 1010.4
20260831054600 14 244 6.4 16.1 0.00 0.00 0.00 89 1010.4
20260831053058 14 225 6.4 19.3 0.00 0.00 0.00 90 1010.4
20260831051557 14 251 9.7 20.9 0.00 0.00 0.00 90 1010.4
20260831050135 14 251 9.7 22.5 0.00 0.00 0.00 91 1010.4
20260831044554 14 261 9.7 17.7 0.00 0.00 0.00 91 1010.5
20260831043052 13 251 8.0 17.7 0.00 0.00 0.00 90 1010.4
20260831041551 14 279 6.4 19.3 0.00 0.00 0.00 89 1010.4
20260831040052 14 230 9.7 24.1 0.00 0.00 0.00 89 1010.3
20260831034546 14 224 8.0 22.5 0.00 0.00 0.00 88 1010.3
20260831033045 15 202 8.0 20.9 0.00 0.00 0.00 87 1010.3
20260831031543 15 265 8.0 33.8 0.00 0.00 0.00 86 1010.2
20260831030051 15 175 11.3 24.1 0.00 0.00 0.00 86 1010.3
20260831024540 15 240 9.7 25.7 0.00 0.00 0.00 87 1010.2
20260831023038 15 5 11.3 25.7 0.00 0.00 0.00 88 1010.2
20260831021537 15 251 6.4 24.1 0.00 0.00 0.00 89 1010.2
20260831020035 15 244 4.8 22.5 0.00 0.00 0.00 90 1010.1
20260831014536 15 251 6.4 14.5 0.00 0.00 0.00 90 1010.2
20260831013032 15 236 4.8 11.3 0.00 0.00 0.00 89 1010.4
20260831011536 15 198 3.2 14.5 0.00 0.00 0.00 87 1010.5
20260831010027 15 238 4.8 17.7 0.00 0.00 0.00 85 1010.6
20260831004526 15 250 4.8 14.5 0.00 0.05 0.00 85 1010.5
20260831003024 15 215 6.4 12.9 0.00 0.05 0.00 84 1010.6
20260831001522 15 198 4.8 14.5 0.00 0.05 0.00 82 1010.6
20260831000022 15 186 4.8 14.5 0.00 0.05 0.00 82 1010.8
20260830234521 15 242 3.2 11.3 0.00 0.18 0.00 82 1010.8
20260830233027 15 254 3.2 9.7 0.00 0.18 0.00 82 1010.7
20260830231519 15 244 3.2 8.0 0.00 0.18 0.00 83 1010.6
20260830230023 15 247 1.6 6.4 0.00 0.18 0.00 83 1010.8
20260830224517 15 249 1.6 6.4 0.00 0.18 0.00 83 1010.8
20260830223015 15 248 0.0 6.4 0.00 0.18 0.00 83 1010.8
20260830221514 15 196 1.6 8.0 0.00 0.18 0.00 83 1010.9
20260830220018 15 224 1.6 8.0 0.00 0.18 0.00 83 1011.0
20260830214512 15 188 1.6 6.4 0.00 0.18 0.18 83 1011.2
20260830213017 15 201 0.0 4.8 0.00 0.18 0.18 83 1011.2
20260830211511 15 169 1.6 9.7 0.00 0.18 0.18 83 1011.2
20260830210019 15 198 0.0 4.8 0.00 0.18 0.18 82 1011.4
20260830204510 16 176 1.6 4.8 0.00 0.18 0.18 82 1011.5
20260830203009 15 176 0.0 4.8 0.00 0.18 0.18 82 1011.4
20260830201509 15 175 0.0 8.0 0.00 0.18 0.18 82 1011.4
20260830200008 16 206 0.0 4.8 0.00 0.18 0.18 81 1011.5
20260830194511 16 206 1.6 4.8 0.00 0.20 0.18 81 1011.7
20260830193007 16 206 0.0 3.2 0.00 0.20 0.18 80 1011.7
20260830191525 16 206 0.0 4.8 0.00 0.20 0.18 79 1011.8
20260830190006 16 204 1.6 8.0 0.00 0.20 0.18 78 1011.8
20260830184506 16 205 3.2 8.0 0.00 0.23 0.18 78 1011.8
20260830183006 17 200 3.2 11.3 0.00 0.23 0.18 77 1011.8
20260830181506 17 263 1.6 9.7 0.00 0.23 0.18 76 1011.9
20260830180004 17 234 3.2 6.4 0.00 0.23 0.18 75 1011.9
20260830174504 17 227 8.0 16.1 0.00 0.23 0.18 75 1011.9
20260830173007 17 205 3.2 12.9 0.00 0.23 0.18 74 1012.0
20260830171503 17 215 3.2 16.1 0.00 0.23 0.18 74 1012.0